Location: Recife
(8.0585°S, 34.8848°W)
Time: 12:29:43
(UTC-03:00)

Vanguard 2 - Pass Details

Date: 14 April 2026
Orbit: 554 x 2894 km, 32.9° (Epoch: 7 May)

Event Time Altitude Azimuth Distance (km) Brightness Sun altitude
Rises 23:16:22 0° 266° (W) 6,202 - -88.1°
Reaches altitude 10° 23:20:56 10° 256° (WSW) 5,420 - -88.3°
Maximum altitude 23:35:34 34° 197° (SSW) 4,060 - -85.7°
Drops below altitude 10° 23:50:02 10° 138° (SE) 5,317 - -82.3°
Exits shadow 23:52:54 - 131° (SE) 5,787 12.0 -81.6°
Sets 23:54:31 0° 128° (SE) 6,071 12.2 -81.2°
